星链-2653 (STARLINK-2653 )

导读

STARLINK-2653是美国太空探索技术公司SpaceX开发的星链星座成员,于2021年5月26日发射升空,运行于近地低轨道。作为星链互联网星座的一部分,该卫星旨在为全球提供高速低延迟互联网服务,尤其覆盖地面基础设施难以到达的偏远区域。不过该卫星已于2024年5月在俄罗斯上空再入大气层完成脱轨。星链项目虽推动全球互联,但也引发太空交通等争议。

基本信息
目录编号:
48665
目录名称:
STARLINK-2653
国际标识:
2021-044AD
轨道中心:
EARTH
卫星名称:
星链-2653
卫星全名:
星链-2653 (STARLINK-2653 )
卫星状态:
已陨落 最后检测时间 2024-05-22
发射日期:
2021-05-26 UTC
国别 :
美国 (US)
星等 :
--
轨道信息
数据来源 国际轨道数据
星历时间: 2024-05-23T04:18:08+0800
轨道信息已过期752天
半长轴: 6574.192km
偏心率: 0.0002102
轨道倾角: 53.031°
近地点辐角 264.973°
升交点赤经 144.426°
平近点角 237.116°
近地点: 194.675km
远地点: 197.439km
周期: 88.414分钟
每日圈数: 16.286932
详细信息
固有亮度:
5
最大亮度:
2.5
卫星平台:
Starlink V1.0
覆盖范围:
全球
运营商:
太空探索技术公司
运营商所在国:
美国
制造商(研发单位):
太空探索技术公司
制造商所在国:
美国
使用方式:
暂无
卫星简介
星链(Starlink)计划是由太空探索技术公司(SpaceX)提出的一个巨型低轨卫星互联网星座项目,计划在2019年至2024年间在太空搭建由约1.2万颗卫星组成的“星链”网络,其中1584颗将部署在地球上空550千米处的近地轨道,并从2020年开始工作。该卫星已陨落。